EW4713 Weather Reports


Display with metric or nautical units.
time (UTC)temp
F
wind
direction
speed
MPH
gust
MPH
rain 1hr
in
rain 24hr
in
rain mn
in
humidity
%
barometer
mb
20260831193001 81 213 2.0 4.0 0.00 0.24 0.24 49 1006.9
20260831192001 80 106 1.0 4.0 0.00 0.24 0.24 48 1006.9
20260831191503 80 119 2.0 5.0 0.00 0.24 0.24 50 1007.2
20260831191001 80 98 0.0 5.0 0.00 0.24 0.24 48 1006.9
20260831185502 79 185 0.0 4.0 0.00 0.24 0.24 52 1007.5
20260831184503 79 157 0.0 2.0 0.00 0.24 0.24 61 1007.2
20260831184002 79 173 1.0 6.0 0.00 0.24 0.24 57 1007.5
20260831183502 78 154 1.0 6.0 0.00 0.24 0.24 56 1007.2
20260831183001 78 49 0.0 6.0 0.00 0.24 0.24 53 1007.2
20260831182502 78 346 0.0 5.0 0.00 0.24 0.24 55 1007.2
20260831181501 78 176 0.0 7.0 0.00 0.24 0.24 62 1007.5
20260831181001 77 99 0.0 7.0 0.00 0.24 0.24 62 1007.5
20260831180501 77 127 2.0 5.0 0.00 0.24 0.24 64 1007.5
20260831180000 77 8 2.0 9.0 0.00 0.24 0.24 60 1007.5
20260831175500 76 121 0.0 9.0 0.00 0.24 0.24 61 1007.5
20260831175003 76 166 2.0 5.0 0.00 0.24 0.24 64 1007.9
20260831174502 76 241 0.0 4.0 0.00 0.24 0.24 66 1007.5
20260831174001 76 90 0.0 4.0 0.00 0.24 0.24 64 1007.5
20260831173505 76 75 2.0 4.0 0.00 0.24 0.24 64 1007.2
20260831173000 76 166 1.0 4.0 0.00 0.24 0.24 66 1007.5
20260831172503 75 172 0.0 4.0 0.00 0.24 0.24 67 1007.5
20260831172001 75 165 2.0 7.0 0.00 0.24 0.24 66 1007.2
20260831171500 75 144 2.0 7.0 0.00 0.24 0.24 67 1007.5
20260831171001 74 257 0.0 5.0 0.00 0.24 0.24 67 1007.5
20260831170001 74 194 1.0 4.0 0.00 0.24 0.24 69 1007.5
20260831164503 74 188 2.0 4.0 0.00 0.24 0.24 70 1007.2
20260831164001 74 0 1.0 4.0 0.00 0.24 0.24 76 1007.2
20260831163502 73 166 2.0 3.0 0.00 0.24 0.24 75 1007.2
20260831162503 73 8 0.0 3.0 0.00 0.24 0.24 77 1006.9
20260831162002 72 157 1.0 3.0 0.00 0.24 0.24 77 1006.9
20260831161503 72 342 0.0 3.0 0.00 0.24 0.24 78 1006.9
20260831161001 72 56 2.0 4.0 0.00 0.24 0.24 83 1007.2
20260831160000 71 0 2.0 3.0 0.00 0.24 0.24 81 1006.9
20260831155502 71 97 0.0 3.0 0.00 0.24 0.24 83 1006.9
20260831155001 71 33 0.0 3.0 0.00 0.24 0.24 83 1006.9
20260831154503 70 102 0.0 3.0 0.00 0.24 0.24 82 1006.5
20260831154001 70 81 0.0 2.0 0.00 0.24 0.24 84 1006.5
20260831153502 70 188 0.0 2.0 0.00 0.24 0.24 84 1006.9
20260831153000 70 0 0.0 3.0 0.00 0.24 0.24 87 1006.9
20260831152503 70 172 0.0 3.0 0.00 0.24 0.24 88 1006.5
20260831152001 69 124 2.0 2.0 0.00 0.24 0.24 88 1006.5
20260831151500 69 279 0.0 2.0 0.00 0.24 0.24 90 1006.5
20260831151001 69 0 0.0 1.0 0.00 0.24 0.24 89 1006.5
20260831150501 68 186 0.0 3.0 0.00 0.24 0.24 90 1006.5
20260831150002 69 26 0.0 3.0 0.00 0.24 0.24 89 1006.5
20260831145502 69 254 0.0 3.0 0.00 0.24 0.24 91 1006.5
20260831145001 69 270 0.0 2.0 0.00 0.24 0.24 90 1006.5
20260831144503 70 270 0.0 2.0 0.00 0.24 0.24 88 1006.1
20260831144001 69 0 0.0 2.0 0.00 0.24 0.24 89 1006.1
20260831143502 68 180 0.0 2.0 0.00 0.24 0.24 95 1006.1
20260831143001 67 209 0.0 3.0 0.00 0.24 0.24 99 1006.1
20260831142000 64 90 0.0 2.0 0.00 0.24 0.24 99 1006.5
20260831141502 65 195 0.0 3.0 0.00 0.24 0.24 99 1006.5
20260831141001 65 147 0.0 3.0 0.00 0.24 0.24 99 1006.1
20260831140502 65 262 0.0 2.0 0.00 0.24 0.24 99 1006.1
20260831140005 64 0 1.0 3.0 0.00 0.24 0.24 99 1006.5
20260831135503 63 180 0.0 3.0 0.00 0.24 0.24 99 1006.1
20260831134507 64 0 0.0 1.0 0.00 0.24 0.24 99 1005.7
20260831133504 65 180 0.0 2.0 0.00 0.24 0.24 99 1005.7
20260831133005 65 336 0.0 2.0 0.00 0.24 0.24 99 1005.7
20260831132503 64 151 0.0 2.0 0.00 0.24 0.24 99 1005.7
20260831132002 65 66 0.0 2.0 0.00 0.24 0.24 99 1005.7
20260831131503 64 186 0.0 3.0 0.00 0.24 0.24 99 1005.7
20260831131001 64 6 1.0 3.0 0.00 0.24 0.24 99 1005.7
20260831130502 65 90 0.0 2.0 0.00 0.24 0.24 99 1005.7
20260831130001 64 186 0.0 3.0 0.00 0.24 0.24 99 1005.4
20260831125502 64 157 0.0 3.0 0.00 0.24 0.24 99 1005.7
20260831124959 64 188 0.0 3.0 0.00 0.24 0.24 99 1005.1
20260831124501 64 191 2.0 6.0 0.00 0.24 0.24 99 1005.1
20260831123959 64 157 1.0 6.0 0.00 0.24 0.24 99 1005.4
20260831123501 65 90 0.0 2.0 0.00 0.24 0.24 99 1005.1
20260831122959 65 187 0.0 4.0 0.00 0.24 0.24 99 1004.7
20260831122500 66 145 0.0 4.0 0.00 0.24 0.24 99 1004.7
20260831121459 67 109 0.0 3.0 0.00 0.24 0.24 99 1004.4
20260831120957 67 168 0.0 3.0 0.00 0.24 0.24 99 1004.0
20260831120458 67 66 0.0 2.0 0.00 0.24 0.24 99 1004.4
20260831115956 67 175 0.0 0.0 0.00 0.24 0.24 99 1004.0
20260831115458 67 175 0.0 1.0 0.00 0.24 0.24 99 1004.0
20260831114956 67 175 0.0 1.0 0.00 0.24 0.24 99 1004.0
20260831114456 67 195 0.0 1.0 0.00 0.24 0.24 99 1003.6
20260831112955 67 270 0.0 1.0 0.00 0.24 0.24 99 1003.3
20260831112456 67 337 0.0 1.0 0.00 0.24 0.24 99 1003.3
20260831111954 67 346 0.0 1.0 0.00 0.24 0.24 99 1003.3
20260831111455 67 346 0.0 3.0 0.00 0.24 0.24 99 1003.3
20260831110953 67 346 2.0 3.0 0.00 0.24 0.24 99 1003.3
20260831110455 67 255 0.0 1.0 0.00 0.24 0.24 99 1003.3
20260831105455 67 303 0.0 2.0 0.00 0.24 0.24 99 1003.3
20260831104952 67 188 0.0 5.0 0.00 0.24 0.24 99 1002.9
20260831103951 67 340 0.0 3.0 0.00 0.24 0.24 99 1002.9
20260831103453 67 45 0.0 3.0 0.00 0.24 0.24 99 1002.9
20260831102951 67 12 0.0 3.0 0.00 0.24 0.24 99 1002.6
20260831102451 67 180 0.0 2.0 0.00 0.24 0.24 99 1002.9
20260831101950 67 328 0.0 2.0 0.00 0.24 0.24 99 1002.6
20260831101450 67 33 0.0 2.0 0.00 0.24 0.24 99 1002.9
20260831100951 67 352 0.0 3.0 0.00 0.24 0.24 99 1002.6
20260831100451 67 305 0.0 3.0 0.00 0.24 0.24 99 1002.6
20260831095451 67 287 2.0 2.0 0.00 0.24 0.24 99 1002.6
20260831094949 67 300 0.0 2.0 0.00 0.24 0.24 99 1002.6
20260831094450 66 255 0.0 2.0 0.00 0.24 0.24 99 1002.6
20260831093948 67 261 0.0 4.0 0.00 0.24 0.24 99 1002.6
20260831093450 66 285 0.0 4.0 0.00 0.24 0.24 99 1002.3
20260831092947 66 264 1.0 4.0 0.00 0.24 0.24 99 1002.3
20260831092449 66 282 2.0 4.0 0.00 0.24 0.24 99 1002.6
20260831091947 66 294 2.0 3.0 0.00 0.24 0.24 99 1002.3
20260831091448 66 346 1.0 3.0 0.01 0.24 0.24 99 1002.3
20260831090947 66 303 2.0 2.0 0.01 0.24 0.24 99 1002.6
20260831090448 66 285 1.0 3.0 0.01 0.24 0.24 99 1002.6
20260831085946 66 315 0.0 3.0 0.06 0.24 0.24 99 1002.6
20260831085445 66 195 0.0 4.0 0.08 0.24 0.24 99 1002.6
20260831084945 66 339 2.0 4.0 0.08 0.24 0.24 99 1002.6
20260831083945 66 329 2.0 5.0 0.08 0.24 0.24 99 1002.3
20260831083445 66 300 0.0 4.0 0.08 0.24 0.24 99 1002.3
20260831082944 66 291 1.0 4.0 0.08 0.24 0.24 99 1002.6
20260831082445 66 312 0.0 4.0 0.08 0.24 0.24 99 1002.6
20260831081444 66 279 4.0 4.0 0.07 0.23 0.23 99 1002.9
20260831080942 66 261 0.0 4.0 0.07 0.23 0.23 99 1002.9
20260831075942 66 121 0.0 2.0 0.02 0.18 0.17 99 1004.0
20260831075441 66 270 1.0 2.0 0.00 0.16 0.16 99 1004.0
20260831074443 66 270 1.0 3.0 0.00 0.16 0.16 99 1003.3
20260831073941 66 337 0.0 4.0 0.00 0.16 0.16 99 1003.3
20260831072941 66 303 2.0 3.0 0.00 0.16 0.16 99 1003.3
20260831072442 66 292 0.0 2.0 0.02 0.16 0.16 99 1003.3
20260831071940 66 320 2.0 3.0 0.16 0.16 0.16 99 1003.3
20260831070441 66 303 0.0 3.0 0.16 0.16 0.16 99 1003.3
20260831065938 66 311 0.0 3.0 0.16 0.16 0.16 99 1003.6
20260831064938 66 236 2.0 6.0 0.16 0.16 0.16 99 1003.3
20260831064440 66 168 0.0 5.0 0.16 0.16 0.16 99 1003.3
20260831063937 66 300 1.0 5.0 0.16 0.16 0.16 99 1003.3
20260831063439 65 270 0.0 5.0 0.16 0.16 0.16 99 1003.3
20260831062937 66 275 2.0 8.0 0.16 0.16 0.16 99 1003.3
20260831062439 66 356 2.0 11.0 0.12 0.12 0.07 99 1002.9
20260831061936 66 334 0.0 11.0 0.00 0.00 0.00 99 1003.6
20260831061437 66 298 3.0 6.0 0.00 0.00 0.00 99 1003.3
20260831060936 66 324 2.0 5.0 0.00 0.00 0.00 99 1002.9
20260831060437 66 236 2.0 5.0 0.00 0.00 0.00 99 1002.6
20260831055431 66 312 6.0 8.0 0.00 0.00 0.00 99 1002.6
20260831054929 66 346 3.0 7.0 0.00 0.00 0.00 99 1003.3
20260831054430 66 296 4.0 8.0 0.00 0.00 0.00 99 1003.3
20260831053929 66 248 2.0 8.0 0.00 0.00 0.00 99 1003.3
20260831053430 66 230 5.0 7.0 0.00 0.00 0.00 99 1003.3
20260831052932 66 283 2.0 9.0 0.00 0.00 0.00 98 1003.3
20260831052434 66 312 4.0 10.0 0.00 0.00 0.00 98 1003.3
20260831051932 66 291 3.0 10.0 0.00 0.00 0.00 98 1003.6
20260831051433 66 348 2.0 7.0 0.00 0.00 0.00 98 1003.3
20260831050931 66 262 6.0 11.0 0.00 0.00 0.00 98 1003.6
20260831050432 66 243 3.0 10.0 0.00 0.00 0.00 98 1003.3
20260831045931 66 323 4.0 10.0 0.00 0.00 0.00 98 1003.3
20260831045433 66 255 3.0 11.0 0.00 0.00 0.00 98 1003.3
20260831043930 66 302 2.0 8.0 0.00 0.00 0.00 98 1004.0
20260831043431 66 228 2.0 12.0 0.00 0.00 0.00 98 1004.0
20260831042930 66 309 0.0 11.0 0.00 0.00 0.00 98 1004.0
20260831042431 66 290 4.0 9.0 0.00 0.00 0.00 98 1004.0
20260831035927 66 219 4.0 9.0 0.00 0.00 0.00 97 1004.4
20260831035429 66 276 6.0 9.0 0.00 0.00 0.00 97 1004.4
20260831034927 66 285 4.0 9.0 0.00 0.00 0.00 97 1004.7
20260831034428 66 243 4.0 10.0 0.00 0.00 0.00 97 1004.7
20260831033927 66 256 5.0 10.0 0.00 0.00 0.00 98 1004.7
20260831033432 66 319 2.0 8.0 0.00 0.00 0.00 98 1004.7
20260831032926 66 291 4.0 8.0 0.00 0.00 0.00 98 1005.1
20260831032426 66 274 2.0 7.0 0.00 0.00 0.00 98 1005.1
20260831031925 66 273 3.0 4.0 0.00 0.00 0.00 98 1005.4
20260831030427 66 258 5.0 9.0 0.00 0.00 0.00 97 1005.1
20260831025924 66 315 2.0 11.0 0.00 0.00 0.00 97 1005.1
20260831025425 66 299 4.0 11.0 0.00 0.00 0.00 97 1005.1
20260831024925 67 297 3.0 11.0 0.00 0.00 0.00 97 1005.1
20260831024426 67 300 3.0 11.0 0.00 0.00 0.00 96 1005.4
20260831023924 67 180 0.0 8.0 0.00 0.00 0.00 96 1005.1
20260831023427 67 237 3.0 5.0 0.00 0.00 0.00 96 1005.4
20260831022929 67 341 2.0 7.0 0.00 0.00 0.00 96 1005.4
20260831022424 67 254 1.0 7.0 0.00 0.00 0.00 95 1005.1
20260831021921 67 259 3.0 12.0 0.00 0.00 0.00 94 1005.1
20260831021424 67 252 5.0 12.0 0.00 0.00 0.00 94 1005.1
20260831020921 68 320 2.0 9.0 0.00 0.00 0.00 93 1005.1
20260831020421 68 304 2.0 13.0 0.00 0.00 0.00 93 1004.7
20260831015921 68 236 2.0 13.0 0.00 0.00 0.00 92 1004.7
20260831015421 68 233 5.0 9.0 0.00 0.00 0.00 92 1004.7
20260831014406 68 339 6.0 9.0 0.00 0.00 0.00 91 1004.7
20260831013401 69 334 5.0 7.0 0.00 0.00 0.00 91 1005.1
20260831012902 68 312 2.0 5.0 0.00 0.00 0.00 91 1005.1
20260831012401 69 297 1.0 5.0 0.00 0.00 0.00 91 1005.1
20260831011900 69 285 2.0 5.0 0.00 0.00 0.00 91 1005.1
20260831011401 68 346 5.0 5.0 0.00 0.00 0.00 91 1004.7
20260831010901 69 242 4.0 5.0 0.00 0.00 0.00 90 1005.1
20260831010401 69 264 1.0 5.0 0.00 0.00 0.00 90 1005.1
20260831005901 69 310 3.0 10.0 0.00 0.00 0.00 90 1005.1
20260831005402 69 258 2.0 10.0 0.00 0.00 0.00 90 1004.7
20260831004901 69 279 2.0 6.0 0.00 0.00 0.00 90 1004.7
20260831004402 69 251 2.0 7.0 0.00 0.00 0.00 90 1004.7
20260831003901 69 300 2.0 7.0 0.00 0.00 0.00 90 1004.4
20260831003401 69 270 2.0 5.0 0.00 0.00 0.00 90 1004.4
20260831002900 69 261 3.0 5.0 0.00 0.00 0.00 90 1004.4
20260831002401 69 294 4.0 10.0 0.00 0.00 0.00 89 1004.4
20260831001900 69 289 1.0 10.0 0.00 0.00 0.00 89 1004.7
20260831000901 69 289 2.0 12.0 0.00 0.00 0.00 89 1004.7
20260831000403 69 283 4.0 9.0 0.00 0.00 0.00 89 1004.7
20260830235901 69 327 2.0 9.0 0.00 0.00 0.00 88 1004.7
20260830235402 69 264 1.0 10.0 0.00 0.00 0.00 89 1004.7
20260830234901 69 275 2.0 10.0 0.00 0.00 0.00 88 1004.4
20260830234403 69 237 2.0 6.0 0.00 0.00 0.00 88 1004.7
20260830233402 69 299 2.0 10.0 0.00 0.00 0.00 88 1005.1
20260830232901 69 275 2.0 10.0 0.00 0.00 0.00 87 1005.1
20260830232401 70 288 4.0 7.0 0.00 0.00 0.00 87 1005.1
20260830231901 69 288 4.0 7.0 0.00 0.00 0.00 87 1005.4
20260830231403 70 291 4.0 9.0 0.00 0.00 0.00 87 1005.4
20260830230901 70 246 4.0 9.0 0.00 0.00 0.00 86 1005.1
20260830225900 70 180 0.0 5.0 0.00 0.00 0.00 87 1005.4
20260830225401 70 235 3.0 5.0 0.00 0.00 0.00 87 1005.4
20260830224903 70 274 2.0 8.0 0.00 0.00 0.00 87 1005.4
20260830224401 70 270 3.0 11.0 0.00 0.00 0.00 86 1005.4
20260830223901 70 334 3.0 11.0 0.00 0.00 0.00 87 1005.1
20260830223400 70 282 2.0 8.0 0.00 0.00 0.00 87 1005.1
20260830222901 69 292 2.0 5.0 0.00 0.00 0.00 88 1005.1
20260830221903 69 291 1.0 6.0 0.00 0.00 0.00 89 1005.7
20260830220904 69 297 4.0 5.0 0.00 0.00 0.00 89 1005.7
20260830220402 69 286 2.0 12.0 0.00 0.00 0.00 89 1005.7
20260830215902 69 270 1.0 12.0 0.00 0.00 0.00 89 1006.5
20260830215404 69 293 6.0 8.0 0.00 0.00 0.00 89 1006.1
20260830214902 69 248 2.0 6.0 0.00 0.00 0.00 90 1006.1
20260830214404 69 266 2.0 6.0 0.00 0.00 0.00 90 1006.1
20260830213903 68 262 2.0 4.0 0.00 0.00 0.00 90 1006.5
20260830213402 69 322 2.0 5.0 0.00 0.00 0.00 90 1006.5
20260830212902 68 270 1.0 10.0 0.00 0.00 0.00 91 1006.9
20260830211903 68 323 2.0 7.0 0.00 0.00 0.00 91 1006.9
20260830211403 69 264 1.0 7.0 0.00 0.00 0.00 91 1006.9
20260830210403 68 264 1.0 7.0 0.00 0.00 0.00 92 1007.2
20260830205905 68 326 3.0 4.0 0.00 0.00 0.00 92 1006.9
20260830205404 68 305 3.0 6.0 0.00 0.00 0.00 92 1006.9
20260830204902 67 293 5.0 6.0 0.00 0.00 0.00 92 1006.9
20260830204401 67 255 1.0 6.0 0.00 0.00 0.00 92 1007.2
20260830203401 68 237 0.0 5.0 0.00 0.00 0.00 93 1007.2
20260830202901 67 270 2.0 6.0 0.00 0.00 0.00 93 1007.2
20260830202401 67 260 2.0 8.0 0.00 0.00 0.00 93 1006.9
20260830201900 67 349 2.0 8.0 0.00 0.00 0.00 93 1007.2
20260830200402 67 286 4.0 7.0 0.00 0.00 0.00 93 1007.5
20260830195859 68 239 2.0 10.0 0.00 0.00 0.00 93 1007.2
20260830195358 68 279 4.0 10.0 0.00 0.00 0.00 92 1007.2
20260830194859 67 184 2.0 6.0 0.00 0.00 0.00 93 1007.5
20260830194358 67 234 3.0 7.0 0.00 0.00 0.00 93 1007.5
20260830193857 67 249 4.0 7.0 0.00 0.00 0.00 92 1007.5
20260830193357 68 293 3.0 6.0 0.00 0.00 0.00 92 1007.5